Location: La Brionne
(46.1728°N, 1.7849°E)
Time: 01:57:59
(UTC+00:00)

Cosmos 2219 Rocket - Pass Details

Date: 30 October 2021
Orbit: 827 x 848 km, 71.0° (Epoch: 26 November)

Event Time Altitude Azimuth Distance (km) Brightness Sun altitude
Exits shadow 03:30:15 60° 82° (E) 961 2.6 -31.6°
Drops below altitude 10° 03:35:27 10° 141° (SE) 2,464 4.9 -30.8°
Sets 03:37:56 0° 145° (SE) 3,397 5.6 -30.3°
